Regional Weather Roundup
Issued by NWS Raleigh/Durham, NC

Home | Current Version | Previous Version | Text Only | Print | Product List | Glossary On
Versions: 1 2 3 4 5 6 7 8 9 10 11 12 13 14 15 16 17 18 19 20 21 22 23 24 25 26 27 28 29 30 31 32 33 34 35 36 37 38 39 40 41 42 43 44 45 46 47 48 49 50
000
ASUS42 KRAH 180310
RWRRAH
NORTH CAROLINA WEATHER ROUNDUP
NATIONAL WEATHER SERVICE RALEIGH NC
1100 PM EDT FRI APR 17 2015

NOTE: "FAIR" INDICATES FEW OR NO CLOUDS BELOW 12,000 FEET WITH NO
SIGNIFICANT WEATHER AND/OR OBSTRUCTIONS TO VISIBILITY.

NCZ001-053-055-056-065-067-180400-
WESTERN NORTH CAROLINA

CITY           SKY/WX    TMP DP  RH WIND       PRES   REMARKS
ASHEVILLE      CLOUDY    60  58  92 SE6       30.08F
JEFFERSON      CLOUDY    59  56  91 CALM      30.10R
MORGANTON      CLOUDY    61  61 100 CALM      30.09S
HICKORY        CLOUDY    63  61  93 SW5       30.04R
RUTHERFORDTON  CLOUDY    64  63  97 CALM      30.06S
MOUNT AIRY     CLOUDY    65  61  88 CALM      30.05F
BOONE          CLOUDY    57  55  94 CALM      30.11S
$$

NCZ021-022-025-041-071-084-088-180400-
CENTRAL NORTH CAROLINA

CITY           SKY/WX    TMP DP  RH WIND       PRES   REMARKS
CHARLOTTE      CLOUDY    62  59  90 S3        30.04F
GREENSBORO     CLOUDY    63  60  90 SW5       30.02F
WINSTON-SALEM  CLOUDY    64  60  87 SW5       30.04S
RALEIGH-DURHAM CLOUDY    66  62  87 SW3       30.02S
FORT BRAGG     CLOUDY    68  64  88 SW3       30.01S
FAYETTEVILLE   CLOUDY    67  65  93 SW7       30.01S
BURLINGTON     CLOUDY    65  62  90 SW5       30.02F
LAURINBURG     MOCLDY    65  63  93 CALM      30.02F
$$

NCZ011-015-027-028-043-044-047-080-103-180400-
NORTHEASTERN NORTH CAROLINA

CITY           SKY/WX    TMP DP  RH WIND       PRES   REMARKS
ROCKY MT-WILSO CLOUDY    66  64  93 SW5       30.01S
GREENVILLE     CLOUDY    64  64 100 CALM      30.03S
WASHINGTON     CLOUDY    68  64  87 S3        30.01F
ELIZABETH CITY CLOUDY    65  61  87 S3        30.01S
MANTEO         CLOUDY    64  62  94 S3        30.02S
CAPE HATTERAS  CLOUDY    62  60  93 E3        30.01F
$$

NCZ078-087-090-091-093-098-101-180400-
SOUTHEASTERN NORTH CAROLINA

CITY           SKY/WX    TMP DP  RH WIND       PRES   REMARKS
LUMBERTON      CLOUDY    66  65  96 CALM      30.01S
GOLDSBORO      CLOUDY    68  65  89 CALM      30.00S
KINSTON        CLOUDY    66  65  95 S5        30.02S
KENANSVILLE    CLOUDY    66  64  93 CALM      30.03S
NEW BERN       CLOUDY    67  63  87 S5        30.02S
CHERRY POINT   CLOUDY    65  62  90 CALM      30.02F
BEAUFORT       CLOUDY    68  65  90 E3        30.01F
JACKSONVILLE   CLOUDY    67  64  90 CALM      30.01F
WILMINGTON     CLOUDY    67  65  93 CALM      30.02S
$$



USA.gov is the U.S. government's official web portal to all federal, state and local government web resources and services.